Regional Weather Roundup
Issued by NWS

Home | Current Version | Previous Version | Text Only | Print | Product List | Glossary Off
Versions: 1 2 3 4 5 6 7 8 9 10 11 12 13 14 15 16 17 18 19 20 21 22 23 24 25 26 27 28 29 30 31 32 33 34 35 36 37 38 39 40 41 42 43 44 45 46 47 48 49 50

000
ASUS43 KLMK 151302
RWRKY
KENTUCKY REGIONAL WEATHER ROUNDUP
NATIONAL WEATHER SERVICE LOUISVILLE KY
900 AM EDT TUE APR 15 2014

NOTE "FAIR" INDICATES FEW OR NO CLOUDS BELOW 12,000 FEET
WITH NO SIGNIFICANT WEATHER AND/OR OBSTRUCTIONS TO VISIBILITY.

KYZ001>023-026-027-061>063-070>075-151400-
WESTERN AND SOUTH CENTRAL KENTUCKY

CITY           SKY/WX    TMP DP  RH WIND       PRES   REMARKS
PADUCAH        SUNNY     37  24  59 NW13      30.15R WCI  29
HENDERSON      SUNNY     34  25  69 NW15G22   30.12R WCI  24
OWENSBORO      FLURRIES  35  29  79 N10G16    30.10R WCI  27
HOPKINSVILLE   MOSUNNY   36  31  81 NW14      30.09R WCI  27
BOWLING GREEN  CLOUDY    37  29  72 NW13G22   30.06R WCI  29
GLASGOW        NOT AVBL
$$

KYZ024-025-028>034-038-045-046-053-151400-
NORTH CENTRAL KENTUCKY

CITY           SKY/WX    TMP DP  RH WIND       PRES   REMARKS
LOUISVILLE/SDF CLOUDY    36  32  85 NW14      30.03R WCI  27
LOUISVILLE/LOU CLOUDY    38  33  82 NW9       30.03R WCI  31
FORT KNOX      NOT AVBL
$$

KYZ035>037-039>044-047>052-055>060-089>105-151400-
NORTHEAST KENTUCKY

CITY           SKY/WX    TMP DP  RH WIND       PRES   REMARKS
LEXINGTON      FLURRIES  34  29  82 NW12G21   29.98R WCI  25
COVINGTON      PTSUNNY   32  26  78 NW16G24   30.01R WCI  21
FRANKFORT      PTSUNNY   33  30  88 N10       29.99R WCI  25
$$

KYZ054-064>069-076>088-106>120-151400-
SOUTHEAST KENTUCKY

CITY           SKY/WX    TMP DP  RH WIND       PRES   REMARKS
JACKSON        LGT SNOW  32  30  92 NW8       29.93R VSB 1   WCI  25
LONDON         SNOW      33  31  92 NW8       29.95R VSB 1/2 WCI  26
SOMERSET       NOT AVBL
MIDDLESBORO    RAIN      39  36  89 NW12      29.90R WCI  31
MONTICELLO     LGT SNOW  33  32  96 N13       29.99S VSB 1   WCI  24
$$




USA.gov is the U.S. government's official web portal to all federal, state and local government web resources and services.